Wind_Speed
43 44 45 46 46 47 47 48 48 48 47 45 46 50 44 44 49 52 65 73 67 60 48 44 41 43 47 44 42 40 39 42 42 44 47 42 36 36 37 38 37 36 36 35 35 33 29 27 26 26 25 25 24 22 19 18 19 19 22 23 19 16 14 12 10 10 11 10 10 10 8 7 7 7 6 6 6 8 10 11 11 10 10 9 8 8 10 11
44 44 44 45 46 46 46 47 47 47 46 44 45 48 43 43 49 50 61 71 70 65 53 42 37 43 48 44 43 40 40 43 44 47 45 39 38 40 39 38 38 37 37 36 35 33 30 28 28 28 27 27 25 24 21 19 19 19 23 26 23 17 15 14 9 7 9 9 10 10 10 8 8 8 7 7 7 7 8 9 9 9 9 9 9 9 10 10
46 45 44 45 46 45 46 46 46 47 44 43 45 46 43 43 48 49 57 71 74 70 58 45 36 42 49 45 43 41 42 44 48 52 44 38 41 40 39 39 39 38 37 35 33 32 30 27 28 28 28 28 27 25 22 20 20 20 22 27 26 19 16 16 12 8 9 11 11 11 11 10 9 8 8 8 8 8 8 8 8 9 9 9 9 10 10 10
46 46 45 44 45 45 46 46 45 47 44 41 44 45 42 44 49 48 54 70 79 77 68 56 42 43 49 44 43 41 39 45 54 54 44 42 42 38 39 39 39 39 37 35 32 31 29 28 29 29 29 29 27 26 24 21 20 20 21 24 25 24 20 18 14 11 11 12 13 12 10 9 10 10 9 9 9 9 9 8 8 9 10 10 11 12 11 10
46 46 45 44 44 45 45 45 45 46 44 40 42 44 42 44 49 49 53 65 75 78 77 70 53 44 47 44 44 41 35 46 59 54 46 46 43 39 39 38 38 38 36 35 34 32 31 30 30 30 30 30 28 27 25 22 21 21 21 22 23 26 26 21 16 13 13 13 12 11 10 10 11 12 11 10 9 9 9 8 9 10 10 11 12 12 12 10
46 45 45 45 44 45 45 45 45 45 44 40 40 42 42 45 48 48 52 57 62 67 73 76 62 49 47 43 44 43 37 46 54 51 49 48 45 41 39 38 38 37 36 36 36 35 34 32 32 32 31 30 30 28 26 23 23 23 22 22 23 27 28 24 19 16 15 14 11 10 11 12 12 13 14 12 10 10 9 9 10 9 10 11 13 12 11 11
46 45 45 46 45 46 46 46 45 45 43 39 39 40 42 47 47 46 49 53 55 55 60 68 66 57 51 45 42 44 44 44 42 44 50 49 47 45 39 38 38 37 37 37 38 38 37 35 33 33 32 31 31 29 27 25 24 24 23 23 24 27 29 26 22 19 18 16 13 11 12 13 12 14 15 14 13 12 10 10 10 10 10 11 11 13 12 12
46 46 45 46 46 46 46 47 46 45 43 40 38 39 44 48 46 43 46 50 52 51 51 56 62 61 57 50 43 46 49 44 40 42 48 49 48 47 42 40 39 38 38 38 39 39 37 35 34 34 33 33 31 30 29 26 26 27 24 23 26 28 29 28 26 23 21 19 16 15 15 15 14 16 17 16 15 14 12 11 11 10 10 9 10 12 13 13
45 45 45 45 46 45 46 47 47 45 44 41 39 39 45 48 46 43 44 47 48 50 50 53 61 62 60 51 42 48 46 39 43 43 45 49 50 49 48 44 41 39 37 37 37 37 37 36 35 34 32 32 31 31 30 28 28 27 24 24 27 29 29 29 29 26 25 22 20 19 18 17 17 18 18 17 16 16 15 13 13 12 11 9 9 11 12 13
45 45 44 45 45 44 45 46 46 45 43 41 39 40 44 47 45 43 44 45 45 51 53 58 63 62 61 54 47 52 43 34 45 47 44 48 51 51 51 47 43 40 38 37 37 37 36 34 32 32 32 32 32 32 30 29 28 25 22 23 26 30 31 30 30 29 28 26 25 23 22 21 20 22 21 17 17 19 18 16 15 14 12 11 10 11 12 13
45 44 44 45 45 44 45 45 45 45 43 41 39 40 43 46 45 43 45 44 46 52 56 63 67 63 64 60 58 58 44 35 43 48 47 47 50 53 53 50 45 41 39 36 36 35 33 31 31 33 35 35 32 32 30 29 27 23 22 23 25 28 30 30 29 29 30 29 28 27 26 26 26 28 24 18 18 19 20 19 18 16 14 13 12 12 13 13
44 43 43 44 44 44 44 44 44 44 43 41 39 41 43 45 45 43 44 44 47 52 54 65 72 68 68 67 65 58 42 33 35 43 48 46 47 50 50 49 46 42 39 36 34 33 32 32 33 34 36 35 32 31 30 29 26 23 23 24 25 28 30 30 28 28 30 30 30 29 31 33 34 32 25 19 20 20 20 21 20 18 16 15 14 14 14 14
43 43 43 43 43 44 44 43 42 42 42 40 39 42 44 46 46 44 45 46 49 50 48 59 73 71 71 71 65 54 41 35 32 39 44 43 44 46 47 47 44 40 36 34 32 31 32 33 33 34 35 34 31 28 27 29 28 24 24 25 24 27 30 28 26 28 29 29 29 27 31 37 35 32 26 22 22 21 21 21 21 20 18 17 16 15 15 16
43 43 43 43 43 43 43 42 41 41 41 40 39 42 44 46 47 46 47 47 49 49 44 52 67 69 70 72 64 55 47 39 35 40 41 43 45 45 47 46 42 41 37 35 33 32 33 33 33 33 34 33 30 28 26 26 28 26 24 24 24 26 28 27 25 26 26 26 26 23 31 37 31 27 24 24 25 24 23 20 20 21 21 20 18 17 17 17
42 42 42 43 44 44 42 42 41 40 40 40 40 42 43 46 48 46 47 48 48 48 46 47 57 62 65 71 67 60 52 42 39 42 41 44 48 46 49 47 43 42 40 38 35 34 34 34 34 34 35 33 29 30 28 24 27 28 24 23 26 28 27 25 24 26 25 23 23 23 30 35 29 24 23 23 25 26 26 22 21 21 22 22 21 19 18 17
42 41 42 42 43 43 42 41 41 41 39 40 41 41 43 47 48 47 47 48 47 48 50 47 50 58 62 70 68 61 55 43 39 44 43 43 47 47 48 47 45 43 41 39 36 35 34 33 35 35 37 36 31 31 29 24 26 29 27 26 28 30 28 24 23 24 23 21 23 26 29 28 22 20 22 23 25 26 27 25 23 22 22 23 23 21 20 19
42 41 41 42 42 43 42 42 43 41 40 40 41 41 44 48 49 47 47 48 47 49 52 52 51 55 60 69 67 61 57 42 37 45 47 42 42 43 47 48 47 45 42 41 37 36 36 36 37 38 38 37 35 34 31 28 29 29 29 29 29 30 29 26 24 22 22 22 23 26 30 28 20 16 16 18 21 24 27 27 25 24 23 23 24 23 22 22
41 41 41 41 42 42 42 43 43 42 41 42 41 43 47 50 49 48 47 48 47 47 48 53 56 52 56 69 69 62 57 44 36 43 47 43 39 38 43 48 49 46 43 42 41 40 40 40 39 39 39 39 38 40 38 35 34 33 33 34 32 30 29 28 25 20 19 20 21 23 27 25 21 20 17 16 17 21 25 26 26 25 24 24 24 25 24 24
40 40 41 41 42 42 42 43 43 42 42 43 43 46 49 49 48 47 49 51 53 54 50 55 62 57 57 72 74 65 58 47 39 43 48 46 41 36 38 45 49 47 45 46 46 47 46 44 43 44 45 46 45 44 42 39 38 36 33 33 33 31 30 28 24 19 17 18 20 23 25 22 18 18 18 18 18 19 21 25 27 27 27 27 26 26 25 25
41 40 40 42 41 42 43 43 44 43 44 46 48 52 54 52 48 47 51 53 57 61 57 53 57 60 60 67 75 71 57 52 48 47 48 46 44 41 38 43 48 47 48 49 49 50 49 48 50 52 51 49 46 42 40 38 36 33 31 30 30 31 30 25 20 18 18 19 21 20 22 23 19 17 17 18 20 21 21 23 26 27 26 27 28 28 27 25
42 41 41 42 42 42 44 44 44 44 47 50 52 57 60 59 55 54 55 55 55 59 59 50 46 59 65 60 67 68 54 52 54 49 47 46 46 45 42 45 50 52 51 51 50 49 48 52 56 55 50 45 43 39 39 39 33 30 31 30 28 29 28 23 19 18 18 20 21 18 21 23 21 19 18 20 23 24 22 23 23 23 23 25 26 27 28 27
41 41 41 42 42 43 44 44 43 45 49 51 53 58 61 60 57 57 58 58 58 59 62 56 42 49 65 60 57 58 50 51 54 50 49 48 47 48 47 48 51 54 54 52 51 50 51 58 58 51 45 41 40 39 39 40 35 30 31 30 29 28 25 22 20 19 18 19 19 18 23 27 24 23 23 23 27 26 25 24 22 21 22 23 25 26 28 29
41 42 41 42 43 43 43 43 43 47 52 54 55 58 59 58 55 54 55 57 60 60 64 66 49 40 56 63 57 56 55 53 52 51 50 49 50 51 50 51 52 54 55 55 56 56 56 59 56 47 43 41 40 39 38 37 35 31 30 29 27 26 24 24 22 20 18 18 20 21 26 30 27 26 26 25 28 29 27 26 25 24 24 24 24 25 27 29
41 41 41 43 43 43 43 42 45 49 53 55 55 56 57 55 53 52 52 51 55 61 66 70 57 42 52 64 62 61 63 63 59 57 54 52 53 53 52 53 53 54 56 58 57 58 55 51 50 46 43 43 41 40 39 37 35 30 28 28 26 25 24 23 20 18 17 17 20 20 25 33 33 30 30 27 27 29 28 28 28 27 26 26 26 26 26 28
41 40 41 43 43 44 43 45 49 51 52 53 54 55 55 54 53 51 50 46 48 58 65 67 57 45 53 64 65 63 61 64 66 63 61 59 56 55 53 51 53 55 56 56 53 53 50 43 45 46 45 45 43 41 41 39 35 30 28 28 25 24 23 21 18 16 15 17 21 18 15 21 26 26 26 25 27 30 29 30 29 27 27 28 28 27 27 27
40 40 41 43 44 45 46 50 52 51 52 53 54 55 53 54 53 50 48 40 40 52 62 67 57 44 53 64 64 60 55 60 66 64 64 62 58 58 55 51 53 54 54 52 48 47 46 41 43 46 45 45 44 43 42 39 35 31 31 29 25 24 22 19 19 17 14 15 17 16 12 15 24 25 21 19 22 26 28 29 29 27 28 28 28 27 26 27
40 41 42 44 46 48 51 55 53 53 56 54 54 54 52 54 52 50 44 25 28 49 57 65 61 46 50 61 62 59 54 59 64 63 65 62 57 56 54 52 52 52 52 50 44 43 46 43 43 47 46 46 47 46 44 42 38 34 32 29 27 26 22 18 19 18 16 15 13 15 15 18 29 34 27 22 24 24 25 25 25 24 23 22 21 21 22 24
40 42 44 45 47 49 53 55 54 55 55 54 57 56 53 54 51 52 39 9 17 48 54 62 66 49 47 59 63 61 58 61 65 63 63 61 57 56 55 56 55 52 52 52 46 44 48 50 48 49 49 48 50 47 43 43 40 34 30 29 28 24 20 17 16 17 17 15 13 16 16 13 25 36 29 25 28 29 28 25 21 19 19 19 18 17 18 19
41 43 45 46 48 50 51 53 55 55 53 54 58 57 53 52 52 52 34 7 16 47 54 59 67 54 48 58 64 62 59 61 65 66 64 61 58 56 55 56 56 51 49 53 49 39 42 51 48 47 50 50 49 45 42 42 40 35 30 28 27 22 18 16 14 15 15 13 15 17 14 9 21 38 34 28 31 31 29 25 21 20 20 20 20 19 18 17
42 44 46 48 52 53 53 52 53 54 54 54 55 56 53 51 54 41 18 13 23 40 51 59 65 60 53 59 64 64 59 58 63 65 64 63 61 58 54 51 52 51 49 51 47 39 39 43 43 43 45 48 47 42 40 40 38 35 31 28 25 20 18 16 14 14 10 10 14 17 16 9 13 29 29 27 30 28 22 18 16 15 16 19 20 20 19 17
43 46 48 52 55 56 57 54 53 54 54 54 53 57 55 52 52 28 7 21 29 32 48 57 61 62 60 63 65 63 58 56 64 65 62 63 62 60 56 49 49 49 49 50 44 38 38 37 40 43 43 44 44 41 39 39 38 36 32 31 24 16 15 15 14 14 8 5 8 13 16 13 15 23 17 9 14 15 12 11 13 15 13 16 19 20 20 19
44 48 51 54 54 55 56 53 55 55 53 56 54 57 57 45 36 21 14 28 26 27 50 57 57 60 62 67 67 64 59 55 63 68 66 65 62 63 61 56 58 51 46 48 41 35 38 40 42 43 43 43 42 42 41 37 38 36 34 35 24 9 8 10 7 7 6 4 5 9 12 15 29 41 31 20 18 15 15 17 18 20 18 17 19 20 20 19
45 50 53 54 52 54 54 50 53 53 53 57 55 59 57 31 18 23 30 32 20 26 51 57 56 59 62 68 68 67 64 58 64 69 68 67 63 63 61 61 65 58 53 55 46 37 34 36 42 42 42 45 44 46 47 41 41 41 39 40 28 9 3 6 3 0 3 6 9 12 14 18 31 36 31 30 27 21 22 24 22 21 20 21 24 23 22 20
51 53 54 54 52 53 55 53 52 53 54 55 55 60 48 18 16 33 36 32 23 28 49 56 56 59 65 70 68 67 62 57 67 71 69 69 63 60 58 58 63 58 56 53 43 40 33 28 43 48 44 47 48 49 51 49 46 43 41 40 34 22 10 5 5 3 3 7 13 16 12 12 17 13 8 8 11 12 13 13 15 19 21 23 24 23 23 21
58 57 56 56 54 53 55 54 53 55 55 54 54 57 40 14 24 40 35 32 31 32 46 56 59 62 65 66 66 70 65 58 67 71 69 72 68 63 61 60 63 58 52 45 36 40 35 27 43 51 45 48 49 49 50 48 44 41 40 38 37 33 20 7 5 7 7 6 9 18 16 17 20 18 9 4 7 7 5 3 2 6 14 21 19 19 20 18
57 57 57 57 55 52 53 52 53 54 55 56 53 48 37 22 28 41 38 33 32 36 46 53 59 62 59 55 58 67 64 60 71 70 64 69 70 70 68 65 67 64 59 54 45 43 37 29 39 47 43 44 45 46 48 45 40 38 41 41 38 34 23 10 5 6 8 4 8 17 23 27 26 27 23 17 14 10 7 6 2 2 4 11 11 11 14 15
57 56 52 52 52 49 47 46 51 52 52 56 50 40 38 28 25 39 45 34 29 38 49 48 52 58 55 49 53 62 58 56 69 66 58 62 62 67 71 65 67 67 62 62 55 48 42 30 34 47 47 43 42 43 45 45 41 38 42 46 38 25 23 18 6 4 5 3 6 16 25 28 24 22 19 19 24 23 17 13 9 8 8 7 8 8 9 11
59 55 48 47 46 44 42 41 46 48 48 52 48 39 38 31 25 36 46 37 28 40 50 41 41 56 57 50 52 61 56 53 62 59 54 55 52 61 71 63 64 66 60 59 53 50 47 28 24 42 47 42 41 41 41 43 44 41 41 46 38 21 22 26 13 4 5 3 3 8 17 24 30 29 17 9 12 18 23 22 19 18 16 15 15 12 10 11
57 51 44 43 42 41 41 40 43 44 43 48 46 36 33 33 31 33 41 41 31 38 48 35 30 48 58 55 56 61 57 56 62 57 50 50 45 56 71 65 64 67 61 58 52 49 50 30 21 38 47 41 40 42 43 45 46 42 37 41 42 27 21 28 23 10 6 5 3 3 5 16 33 37 27 17 10 9 14 17 17 16 13 10 10 9 8 9
53 49 46 44 43 42 41 42 47 49 45 46 46 38 34 36 36 34 38 40 31 35 48 34 21 37 53 55 57 62 58 58 67 61 52 54 49 53 67 65 64 67 62 60 54 47 49 39 27 37 44 43 43 45 50 52 50 48 42 42 44 33 20 21 27 21 9 3 3 2 3 13 26 27 25 25 19 16 19 20 20 20 16 11 11 10 9 10
49 48 45 43 41 40 39 39 44 46 43 42 44 43 41 39 39 38 40 40 31 32 43 32 17 29 48 51 55 62 58 56 67 63 53 58 56 54 66 67 64 68 61 56 55 48 47 44 36 39 43 47 49 51 53 53 53 53 48 46 46 41 28 16 15 26 25 13 7 5 4 15 25 24 20 21 19 20 24 25 24 23 20 18 17 16 15 13
42 42 41 39 37 37 37 37 37 37 34 34 39 43 45 43 40 39 42 45 40 35 36 27 17 25 39 46 51 57 55 55 65 61 52 60 64 60 69 72 66 68 67 61 58 54 49 47 41 41 46 49 47 48 50 48 51 50 47 46 44 42 40 27 15 24 34 27 18 10 7 14 23 25 23 21 18 17 16 13 12 11 13 15 16 17 17 17
37 40 41 38 36 37 39 40 40 37 30 29 34 37 40 42 41 38 40 44 43 41 39 31 22 21 26 36 46 51 51 52 61 63 54 59 68 63 65 71 67 65 68 63 57 53 48 44 40 36 38 40 38 43 47 45 45 46 47 49 47 46 48 39 24 21 28 31 26 13 7 13 17 20 23 21 17 15 11 8 5 3 7 9 12 16 18 18
39 43 43 38 36 37 38 41 42 37 28 26 30 31 32 37 38 37 38 40 39 39 43 42 33 25 19 25 36 43 44 44 53 61 56 54 62 59 57 67 68 65 68 64 61 59 49 43 42 29 16 17 21 27 34 38 42 47 50 52 53 52 48 41 31 20 20 33 33 17 11 17 17 17 21 20 17 16 14 11 8 10 14 13 14 17 18 17
41 42 41 36 34 34 33 37 42 38 29 27 28 27 28 32 35 35 35 37 37 35 39 45 45 40 31 21 23 31 35 39 46 53 52 49 54 54 53 62 68 67 67 62 62 63 50 43 49 37 17 12 18 25 37 48 52 52 52 53 55 55 50 47 40 25 20 30 36 31 23 17 16 19 23 23 21 20 17 16 18 19 20 19 19 19 19 15
43 43 42 37 34 33 30 31 37 37 30 28 28 26 26 30 33 35 35 35 36 34 34 37 40 41 39 33 25 21 22 32 43 48 48 48 51 51 52 60 65 64 63 57 56 58 48 42 51 51 43 42 44 47 55 58 54 51 51 53 55 54 53 49 39 34 35 29 30 41 36 19 16 18 20 22 24 23 23 24 24 23 22 22 23 22 19 15
41 43 45 42 36 32 29 27 32 34 29 26 26 23 22 26 28 32 34 32 33 33 31 31 32 34 36 38 37 29 18 20 35 43 42 45 52 53 51 57 62 61 61 57 54 54 48 44 48 50 51 55 53 51 55 54 53 53 53 53 52 50 50 48 43 48 45 23 20 41 42 34 32 25 20 25 26 25 26 25 25 25 24 25 26 23 20 18
38 40 46 43 36 35 34 30 32 34 28 23 22 19 18 20 22 27 29 25 26 30 29 28 29 30 33 36 39 39 34 24 25 33 36 40 46 48 48 53 59 60 60 56 53 54 50 48 49 48 47 50 49 49 51 53 54 56 56 56 55 52 52 54 56 59 48 31 38 52 45 43 47 38 35 34 25 22 24 24 25 27 26 28 26 23 22 22
38 40 44 39 32 35 37 32 30 32 27 23 21 18 16 16 16 20 23 21 22 25 26 28 29 28 28 30 32 37 41 36 26 25 31 38 43 45 47 51 55 58 58 54 51 52 49 46 48 49 45 45 48 48 48 48 49 52 54 56 57 57 58 59 61 63 54 46 55 56 46 49 54 48 47 40 29 26 25 24 28 29 29 29 26 26 28 29
39 40 44 37 29 30 31 27 27 27 24 21 20 18 17 17 15 15 17 18 19 19 20 25 30 29 27 27 29 32 36 40 35 26 26 33 41 46 49 51 54 56 56 53 51 51 48 40 42 48 44 40 44 46 45 46 47 48 51 53 53 53 56 59 60 59 55 52 59 59 53 57 57 50 49 45 39 38 34 31 32 30 30 31 31 34 35 35
36 37 40 35 27 27 26 23 23 23 22 21 20 18 18 19 17 14 14 15 15 14 14 19 25 28 28 28 28 29 30 34 37 33 27 27 35 44 48 50 55 57 56 53 52 55 50 38 38 44 37 34 43 44 42 45 44 44 49 51 52 53 54 57 59 59 58 58 59 61 59 58 57 53 50 48 46 45 43 40 38 35 35 37 38 39 38 36
31 32 36 32 25 24 24 21 20 21 21 21 19 17 16 15 14 13 12 12 12 12 14 16 18 21 24 26 26 28 29 29 31 33 33 29 30 40 47 50 53 57 60 58 53 55 53 42 39 41 33 34 43 44 42 40 30 33 48 52 52 56 57 58 60 59 60 60 58 59 57 54 52 49 46 46 46 44 43 40 37 37 37 38 39 38 36 35
Wind_Direction
241 241 242 243 243 241 236 233 234 236 235 231 229 231 230 225 226 226 227 224 218 214 204 197 200 199 200 199 197 200 202 206 210 211 210 206 204 206 206 208 209 210 212 216 220 222 219 217 218 219 221 222 224 220 212 209 208 201 202 209 210 201 200 217 227 214 215 226 223 214 212 228 236 233 238 230 212 204 204 209 213 215 209 205 215 227 232 233
243 242 243 244 244 242 239 235 233 235 235 231 228 230 229 223 225 224 223 223 217 215 208 198 199 200 201 198 198 203 205 208 212 216 213 204 205 206 204 205 207 211 215 216 220 223 223 221 219 220 220 221 223 221 215 210 210 204 202 208 208 201 202 221 238 231 221 219 219 218 219 232 238 234 242 241 230 218 211 214 212 212 211 207 215 224 225 226
242 243 243 245 244 243 241 238 234 233 233 230 227 229 228 222 223 222 221 220 214 213 209 204 207 202 198 199 200 205 208 210 216 218 212 206 208 206 205 205 205 210 215 217 221 224 225 224 224 224 221 222 223 222 216 210 212 209 204 208 208 201 209 231 241 236 220 208 214 224 228 238 243 240 242 244 241 231 224 222 216 211 211 208 213 221 224 225
240 241 242 244 244 242 241 239 236 233 233 229 225 227 226 222 222 220 220 220 217 215 212 211 216 204 196 199 201 204 209 213 219 218 209 209 209 205 206 206 205 208 213 216 219 222 223 222 224 226 225 224 223 222 219 211 214 214 210 210 208 204 216 235 236 225 214 207 212 220 229 241 243 240 240 243 243 239 234 230 223 215 211 210 212 217 221 225
238 239 240 242 242 242 241 239 237 234 233 229 224 225 223 221 222 220 219 222 224 225 223 221 218 207 199 199 199 201 210 221 224 217 208 211 209 206 207 205 206 207 209 213 214 217 218 219 221 223 225 224 222 221 219 213 215 217 213 212 208 207 218 230 231 223 214 210 213 219 231 243 244 241 239 243 248 250 248 243 237 226 215 210 211 216 217 220
237 238 239 240 241 242 241 239 238 235 234 229 223 222 220 220 222 220 219 222 227 229 232 229 220 213 208 204 200 202 217 228 226 216 209 211 209 207 207 205 206 206 207 210 212 214 215 215 217 221 222 222 223 222 219 215 215 218 215 213 210 211 218 225 228 225 219 217 219 224 236 246 249 246 243 244 249 253 252 250 250 241 228 216 211 216 217 218
235 236 237 238 240 242 242 240 238 236 233 228 221 218 215 218 221 219 219 222 225 226 231 230 224 220 214 209 204 208 225 228 221 214 208 210 210 207 207 206 206 204 205 207 210 213 213 213 216 219 220 220 221 221 220 217 217 218 215 214 216 218 219 220 222 223 223 224 225 228 236 245 250 249 245 243 244 249 252 252 249 243 237 227 214 214 215 219
235 235 236 237 239 240 241 240 239 236 232 228 220 213 211 217 219 217 218 219 221 221 221 224 225 220 211 206 209 218 226 220 214 212 206 208 210 207 208 207 206 205 204 207 210 214 215 214 216 218 219 220 221 221 219 217 218 219 217 216 219 223 222 221 220 221 223 227 229 230 236 243 246 248 246 241 241 246 250 252 249 242 236 230 218 214 213 217
235 234 234 236 238 239 241 240 238 235 231 227 219 211 210 216 217 214 214 215 215 214 212 216 217 211 205 206 217 224 220 210 211 212 205 206 208 208 209 208 207 206 204 206 210 214 216 215 217 220 222 222 221 223 221 218 220 220 220 219 219 223 223 223 222 221 224 227 231 232 236 243 245 248 248 241 239 242 244 249 252 248 240 231 221 218 216 217
235 233 233 234 236 237 240 239 236 232 228 224 217 210 210 215 215 211 210 209 209 209 208 210 206 202 206 213 224 225 217 210 212 212 209 206 207 208 208 209 209 208 206 205 209 213 216 216 217 220 224 226 223 223 222 221 224 222 222 221 220 225 225 225 223 223 225 227 231 233 235 241 244 246 246 242 240 241 242 244 248 250 249 240 228 222 221 220
235 233 233 233 235 237 238 237 234 229 224 221 215 208 209 212 213 209 207 205 204 208 209 206 202 202 210 218 224 221 213 208 206 209 213 207 207 209 208 209 209 210 208 206 209 212 215 215 216 218 220 223 221 223 223 221 224 222 222 224 223 227 229 229 228 228 230 230 234 237 239 241 243 246 243 243 244 243 242 241 242 247 250 248 238 229 224 224
234 232 232 232 235 237 236 234 231 227 222 218 213 207 207 208 209 207 206 204 202 210 212 208 207 208 216 222 222 217 209 207 201 201 210 208 208 210 209 210 210 212 212 209 210 211 214 214 215 218 221 221 215 218 222 220 222 221 221 226 226 229 231 230 231 233 234 235 237 242 249 245 243 247 245 243 247 245 243 241 240 242 245 246 242 236 230 227
232 231 231 231 234 235 232 230 229 225 219 214 210 207 205 205 206 205 203 202 201 208 212 212 214 214 220 222 218 219 215 215 208 193 199 203 205 209 209 210 210 211 213 213 214 213 215 216 216 219 223 222 213 213 219 216 218 219 221 226 228 232 234 230 228 232 234 237 239 243 251 247 242 247 246 240 242 245 244 240 241 242 244 244 242 240 235 231
231 230 230 231 232 230 228 227 224 221 215 210 207 205 203 202 202 203 202 200 201 206 206 211 220 219 222 220 218 226 222 219 214 189 189 197 198 204 204 205 207 208 209 210 211 213 215 216 217 219 222 222 214 213 217 214 215 216 218 222 225 231 233 229 228 233 234 235 237 240 248 247 242 243 243 239 238 241 244 240 239 241 242 243 242 240 237 235
230 229 230 231 230 226 225 223 219 218 212 205 205 203 201 199 199 201 201 199 200 202 198 205 223 226 226 225 224 228 221 219 215 188 184 195 196 200 201 199 201 203 204 205 206 210 214 216 214 215 218 218 211 210 211 210 212 212 213 216 221 227 230 230 229 232 234 235 236 238 246 250 248 241 237 238 238 238 242 242 240 240 241 243 241 240 238 237
229 229 230 229 226 223 221 218 215 214 207 200 202 201 198 196 197 199 200 199 198 199 195 197 218 226 226 226 225 222 216 219 216 192 185 195 198 201 200 196 197 199 200 201 204 208 212 215 214 215 217 218 215 209 205 204 207 209 212 216 221 224 227 228 227 229 233 234 235 235 241 250 253 243 232 235 238 236 238 240 242 242 241 243 243 241 239 237
227 227 228 225 222 220 218 214 212 211 203 197 199 197 195 194 196 199 199 198 197 199 199 197 211 223 226 227 225 218 210 211 211 195 187 192 196 201 201 196 194 198 199 198 200 205 211 211 212 215 217 221 219 209 201 198 196 200 208 215 222 226 227 227 226 227 230 231 232 236 243 246 246 240 227 229 236 236 236 237 241 243 242 243 244 244 241 238
228 226 223 221 219 218 216 214 212 209 200 195 195 193 193 195 197 199 197 196 196 196 202 205 207 211 220 225 223 216 209 206 202 193 189 191 191 197 202 198 195 196 197 198 198 201 207 208 210 214 214 216 213 204 201 199 197 198 204 209 216 223 227 228 228 228 231 235 236 239 245 246 241 240 234 228 230 231 232 235 238 241 241 241 243 244 243 241
226 222 220 219 217 215 214 213 210 205 195 191 192 191 192 196 199 200 196 195 195 192 197 208 205 203 217 225 221 217 215 213 206 194 192 191 186 189 198 199 197 195 195 197 197 200 204 203 204 208 208 208 208 205 206 209 209 206 208 212 215 220 225 228 230 232 236 241 242 240 246 251 245 236 233 232 236 232 227 230 235 238 239 239 240 241 242 242
220 218 217 217 215 212 212 210 207 200 192 190 190 190 192 196 198 199 198 198 197 193 193 204 207 207 216 222 221 221 221 219 210 196 192 191 187 185 190 196 196 195 198 197 197 200 202 202 204 207 208 206 208 208 210 216 215 212 215 218 221 224 227 229 230 233 237 243 245 245 254 260 251 234 228 233 241 237 226 226 232 236 239 240 240 240 241 241
216 214 214 214 212 210 209 208 204 197 191 191 190 191 193 194 194 195 196 197 199 197 194 198 205 207 210 214 215 215 213 208 203 197 192 191 190 187 185 193 194 194 199 199 198 198 200 206 210 211 211 210 212 212 213 217 214 215 220 220 223 227 228 229 230 230 235 242 246 251 259 259 250 239 233 232 239 241 235 231 234 239 244 244 244 244 242 241
214 212 212 212 210 208 206 205 202 195 192 192 191 192 193 193 194 195 194 195 197 197 197 199 201 206 212 215 211 207 205 199 196 196 192 188 192 192 186 190 196 196 196 196 196 194 199 209 212 212 212 210 213 213 213 216 213 216 222 220 221 221 221 225 226 225 229 239 246 253 259 258 253 249 243 234 236 241 243 242 241 244 248 248 248 247 244 240
212 211 210 209 207 205 203 202 199 195 194 194 192 192 193 194 196 197 196 197 197 195 197 201 202 207 213 216 213 211 216 213 202 195 191 188 192 196 191 190 196 197 192 194 196 195 201 210 209 208 207 205 206 207 209 212 211 214 217 213 210 207 210 216 218 220 224 236 248 256 263 261 257 251 244 236 236 240 243 246 248 246 247 249 250 250 247 242
210 209 207 205 203 201 199 197 196 195 196 195 194 193 193 193 195 197 196 199 201 199 198 200 202 207 211 212 210 211 218 222 215 200 193 192 192 195 197 194 194 195 194 197 200 200 205 209 206 203 204 204 203 204 206 206 205 208 208 204 200 198 205 213 216 219 224 236 249 259 271 267 260 255 249 241 239 242 241 242 246 246 247 248 249 250 249 245
208 207 205 202 199 197 194 194 196 196 195 193 192 192 193 193 194 196 195 199 205 203 202 203 203 207 210 209 209 209 213 218 217 206 196 195 194 194 197 197 195 194 197 199 199 203 207 208 204 200 201 203 204 205 204 201 199 199 199 199 200 202 205 209 210 214 220 231 242 250 271 273 265 258 253 248 243 244 243 242 244 246 247 247 248 251 253 252
205 204 203 199 196 194 192 194 197 194 191 192 190 189 192 193 193 195 194 199 210 206 204 205 204 207 207 206 207 208 205 206 210 205 196 195 198 196 193 195 198 198 198 197 198 203 206 207 204 198 198 200 203 206 204 199 195 194 196 194 196 204 205 204 208 213 217 225 238 239 241 268 272 261 252 254 250 245 243 244 245 245 246 248 249 253 254 255
203 201 200 196 193 193 191 193 194 191 191 190 186 187 192 192 192 194 192 196 214 208 204 203 203 204 203 203 204 200 195 194 196 198 195 193 197 199 195 193 196 199 198 194 197 204 203 202 201 198 198 198 201 204 201 197 196 198 199 193 194 201 201 203 210 215 223 229 238 240 241 265 275 267 259 257 256 251 246 243 245 243 241 246 251 255 255 254
201 198 197 194 192 193 192 191 190 190 191 187 184 187 191 192 191 192 192 192 209 203 204 204 202 200 197 199 201 198 196 193 187 189 194 193 194 198 200 199 196 197 198 195 195 202 203 202 200 197 197 199 200 201 198 197 198 201 198 194 198 202 201 207 212 215 225 235 237 236 241 261 272 270 268 265 259 254 251 249 249 246 242 247 251 252 255 252
199 196 194 191 190 192 192 190 188 189 189 185 185 187 188 190 189 188 193 203 190 196 201 203 202 200 194 193 195 197 199 197 190 185 188 192 194 198 202 203 200 196 198 199 197 199 203 207 205 198 197 199 200 200 200 199 200 200 195 193 199 203 205 210 217 222 224 234 238 232 231 250 275 273 271 266 261 256 255 255 254 252 249 248 246 243 246 244
196 192 190 188 187 187 189 191 190 188 187 185 186 188 188 189 187 184 194 204 184 189 197 201 202 200 193 187 188 194 195 194 192 185 181 187 192 196 200 203 202 195 193 197 200 202 203 207 209 205 202 202 201 200 202 203 205 203 195 195 203 208 212 213 220 226 225 238 240 234 230 233 281 282 275 265 261 258 256 254 246 242 244 244 241 238 239 236
191 188 186 185 185 185 186 189 189 189 187 185 186 189 189 190 189 187 189 192 188 187 191 198 200 197 194 188 184 188 190 188 189 183 179 184 188 192 193 192 192 189 189 194 197 202 201 200 207 212 211 207 203 202 203 206 208 207 202 202 204 201 205 211 215 215 219 243 231 231 239 234 244 260 269 267 254 249 250 248 230 224 232 237 235 233 234 233
185 183 183 185 185 185 186 186 187 188 187 185 186 187 187 186 192 197 180 180 190 191 187 191 193 191 193 192 186 187 187 185 186 185 182 183 186 191 191 186 183 179 184 192 192 194 200 202 206 211 213 211 207 203 203 207 208 208 206 202 195 175 183 201 200 202 219 222 180 196 212 225 244 251 254 257 257 260 268 268 247 232 230 228 223 223 226 228
181 181 181 183 185 185 185 186 187 188 185 184 185 185 186 187 192 194 183 177 185 187 184 186 188 186 188 189 189 189 187 186 187 186 186 185 186 190 192 193 191 185 185 189 186 183 192 203 205 206 209 212 211 204 199 202 204 205 204 197 188 167 163 200 185 152 232 195 179 185 198 232 253 261 265 262 260 261 262 263 257 243 233 226 221 220 224 229
179 184 182 181 185 186 186 187 189 189 184 182 183 183 187 190 183 189 188 184 187 181 180 183 183 183 185 186 188 188 185 186 187 185 185 186 186 187 188 193 196 193 188 184 182 179 178 193 203 203 206 208 209 209 205 201 200 202 203 199 194 190 188 189 188 194 169 165 181 186 196 234 243 254 284 261 231 227 242 251 256 250 232 223 224 224 226 229
174 181 182 180 184 187 187 188 188 188 184 181 182 183 185 180 178 188 190 187 189 179 175 181 181 179 182 184 187 187 184 182 184 183 184 186 186 187 188 192 194 193 187 179 180 186 184 195 203 202 205 207 207 210 210 203 197 198 200 200 202 201 195 168 170 195 163 141 190 199 213 236 236 239 241 188 169 185 210 214 228 255 228 220 226 228 225 223
169 177 183 183 183 181 183 186 183 183 184 182 183 183 184 183 183 190 191 187 190 180 170 177 181 178 180 182 182 185 185 183 180 180 184 186 187 189 191 193 193 192 192 187 183 186 189 200 206 202 204 209 208 208 209 205 197 195 197 201 205 204 200 179 145 179 177 189 224 215 229 244 251 257 250 234 230 228 233 230 162 63 209 205 214 220 219 223
170 174 178 179 178 174 175 179 176 176 181 183 184 184 185 187 186 192 194 189 188 181 172 173 180 180 180 181 180 181 183 182 180 179 181 185 187 190 191 194 193 193 197 195 188 186 187 189 199 202 202 206 209 209 211 211 205 198 199 204 204 202 209 208 180 144 175 229 237 220 234 244 247 256 254 242 241 239 234 233 234 250 251 240 242 235 227 229
172 173 169 167 170 169 170 174 175 176 179 182 186 189 189 187 185 191 195 194 190 184 178 174 178 182 182 182 181 180 180 179 179 180 180 182 187 190 190 192 193 193 197 198 193 191 188 176 177 196 200 201 204 206 207 212 213 210 208 206 202 199 207 204 195 178 193 219 277 226 235 243 238 236 238 232 235 236 233 235 244 249 254 261 256 244 237 234
170 168 161 160 165 169 171 174 179 180 183 186 190 194 192 188 187 188 192 197 196 190 186 181 179 184 184 184 182 180 181 180 179 180 181 182 187 191 191 192 192 193 195 196 196 194 190 180 167 189 198 199 199 202 203 205 209 212 215 209 205 208 208 201 201 198 175 190 241 247 235 244 242 239 240 242 237 225 228 236 241 234 233 244 232 218 226 229
165 163 160 161 163 167 171 173 178 181 184 190 196 198 196 194 195 192 191 195 195 191 192 192 188 183 183 185 184 181 183 182 180 182 184 185 187 190 194 194 192 192 193 195 199 196 190 186 176 180 192 197 198 203 207 206 203 203 206 205 205 208 203 202 212 211 197 173 182 197 257 248 247 246 246 248 244 235 237 243 243 236 235 234 221 228 248 239
159 157 156 158 160 162 167 169 175 178 180 187 195 198 198 200 202 200 199 203 202 195 194 194 191 183 180 183 185 183 182 182 182 183 185 186 186 189 194 197 194 190 188 190 196 196 191 189 180 172 184 197 201 207 211 210 207 203 202 202 204 205 196 187 213 215 214 220 200 184 254 254 250 249 246 247 247 242 242 246 248 249 249 244 238 244 250 238
153 148 147 154 159 163 169 170 172 178 181 184 189 194 199 203 206 204 205 209 213 210 202 193 180 177 177 178 181 183 182 182 183 184 187 189 190 193 195 197 197 193 189 189 193 196 195 191 180 173 185 197 202 207 208 209 210 207 206 207 206 207 203 197 204 210 209 217 226 231 271 261 248 245 244 247 249 243 239 237 241 248 243 235 229 228 228 225
153 146 147 157 164 166 172 172 170 174 178 181 185 190 197 202 206 208 208 211 217 221 218 207 187 174 173 172 176 180 181 183 184 185 189 192 194 197 197 195 195 193 191 189 187 189 193 189 176 169 184 193 198 206 208 208 208 206 208 211 209 211 212 208 214 214 204 211 218 222 261 249 233 235 240 242 238 225 206 179 172 224 242 232 218 212 213 219
156 149 150 160 165 166 171 172 171 171 168 169 178 184 192 200 205 207 209 212 216 222 226 223 213 204 191 170 170 176 178 180 185 187 189 192 194 197 197 194 194 193 193 193 189 188 190 186 175 164 167 185 193 204 206 206 209 210 211 212 212 215 214 212 218 218 212 217 212 203 238 237 213 209 219 222 218 207 193 188 219 264 269 257 237 221 214 218
158 155 155 162 165 166 171 174 175 175 167 160 165 170 179 192 201 205 209 213 215 219 226 228 227 227 224 203 175 172 174 176 181 186 189 191 193 196 196 195 195 195 195 195 194 193 190 183 181 177 165 173 190 199 200 202 206 210 212 211 212 214 212 212 214 212 222 225 212 208 225 227 208 202 202 207 216 220 223 234 248 260 262 255 243 228 217 222
160 158 159 164 167 170 175 178 179 178 170 161 159 161 166 175 189 202 209 214 217 219 223 227 232 234 234 233 217 189 173 172 176 183 188 190 192 194 195 195 196 196 196 194 194 194 190 188 192 192 193 195 198 201 203 202 202 205 208 209 210 211 212 213 212 215 224 224 214 219 225 223 218 208 201 212 225 233 240 246 250 252 250 246 239 228 223 238
162 159 161 165 167 172 175 176 181 180 173 167 164 162 165 167 174 188 200 210 215 218 221 225 231 234 233 235 231 223 214 186 177 180 184 188 191 192 194 195 194 195 196 195 196 194 190 192 196 198 204 207 204 203 205 204 204 206 207 209 210 209 210 213 216 222 224 218 226 233 231 232 232 220 217 232 237 239 239 240 246 248 241 237 234 230 235 255
166 161 163 166 167 174 176 173 179 184 182 178 172 166 170 172 170 175 184 196 204 208 213 218 223 229 231 233 232 229 230 222 193 182 182 185 188 187 189 192 193 195 196 195 197 197 194 196 199 199 206 210 209 209 208 205 207 211 210 211 211 209 210 214 220 226 225 222 236 239 235 238 241 236 238 238 227 226 233 234 241 244 238 234 234 238 249 265
170 163 164 168 169 174 177 173 176 184 187 186 183 179 180 181 178 175 177 180 181 187 200 208 211 217 220 221 225 226 229 229 214 190 181 184 189 188 185 188 191 194 195 193 195 198 198 200 202 201 203 208 211 214 212 207 208 211 213 214 214 213 215 218 223 228 226 227 237 242 241 244 246 246 246 239 223 221 228 231 236 238 236 236 240 246 255 267
175 168 167 171 171 171 175 174 174 179 183 185 187 187 189 191 189 181 179 183 181 178 186 195 200 207 211 212 214 220 226 229 226 211 185 179 188 192 190 189 190 192 194 194 195 197 199 202 203 201 201 203 209 213 214 212 210 210 213 216 215 215 217 220 224 227 226 229 237 242 243 245 247 247 248 246 240 237 235 232 234 235 234 238 247 255 261 268
179 177 176 177 169 165 173 177 175 176 177 180 185 184 184 190 191 183 176 183 191 190 182 180 183 191 198 202 205 210 217 224 228 225 211 191 186 189 193 194 192 191 192 194 196 198 199 198 199 199 197 200 207 211 214 215 213 212 213 214 214 215 217 221 226 228 226 228 234 238 242 247 249 249 251 252 251 250 247 243 242 241 240 242 252 262 267 269
182 183 185 185 171 161 170 178 179 182 183 185 188 185 181 185 189 189 182 176 179 177 173 177 179 181 183 184 189 197 204 211 218 221 223 218 196 189 193 196 195 195 195 194 196 198 197 195 194 194 195 203 208 209 209 208 206 210 216 218 219 220 222 225 228 231 229 228 232 237 243 251 254 254 257 258 257 258 258 258 257 256 254 252 256 262 265 265
Height
3004 3006 3008 3009 3012 3016 3020 3024 3027 3029 3033 3039 3046 3049 3053 3060 3064 3068 3072 3078 3086 3090 3093 3097 3102 3106 3110 3115 3118 3121 3123 3123 3125 3125 3126 3134 3144 3149 3150 3152 3156 3157 3159 3161 3164 3167 3171 3174 3175 3177 3179 3179 3180 3182 3184 3185 3186 3187 3189 3190 3190 3191 3192 3192 3192 3193 3193 3194 3194 3193 3194 3194 3194 3194 3194 3195 3195 3195 3196 3196 3196 3196 3197 3197 3197 3197 3197 3198
2999 3002 3004 3006 3008 3011 3015 3019 3023 3025 3029 3035 3041 3045 3049 3055 3059 3064 3070 3075 3081 3086 3090 3094 3099 3104 3108 3112 3116 3120 3120 3121 3123 3122 3128 3139 3143 3144 3146 3150 3153 3154 3156 3159 3163 3166 3169 3172 3174 3175 3177 3178 3179 3180 3182 3183 3185 3186 3187 3188 3189 3191 3191 3190 3191 3192 3193 3193 3193 3193 3193 3194 3194 3194 3194 3194 3194 3195 3195 3195 3196 3196 3196 3197 3197 3197 3197 3197
2996 2998 3000 3002 3004 3007 3010 3014 3019 3022 3025 3031 3037 3041 3045 3050 3055 3060 3066 3071 3077 3083 3087 3090 3095 3101 3106 3110 3115 3118 3118 3121 3118 3118 3130 3138 3138 3141 3144 3146 3150 3152 3155 3159 3163 3165 3168 3171 3173 3174 3175 3176 3178 3179 3180 3182 3183 3184 3185 3186 3188 3190 3189 3189 3190 3191 3192 3192 3192 3192 3193 3193 3193 3194 3194 3194 3194 3194 3195 3195 3195 3196 3196 3196 3196 3196 3196 3196
2992 2994 2996 2998 3000 3003 3006 3010 3014 3018 3022 3027 3033 3037 3041 3046 3051 3056 3062 3067 3071 3078 3082 3086 3092 3100 3103 3106 3112 3114 3117 3118 3109 3116 3131 3134 3135 3139 3142 3144 3148 3150 3153 3157 3161 3164 3167 3169 3171 3172 3174 3175 3176 3178 3179 3181 3182 3183 3184 3185 3187 3189 3188 3188 3190 3191 3191 3191 3191 3192 3193 3193 3193 3193 3193 3193 3193 3193 3194 3194 3195 3195 3195 3196 3195 3195 3196 3196
2988 2989 2992 2994 2996 2998 3002 3005 3009 3014 3018 3023 3029 3034 3038 3043 3047 3052 3057 3062 3067 3072 3076 3082 3091 3098 3101 3102 3106 3109 3114 3111 3103 3117 3130 3130 3134 3138 3139 3143 3145 3148 3151 3154 3158 3160 3163 3165 3168 3170 3171 3173 3174 3176 3177 3179 3181 3181 3182 3184 3186 3187 3187 3187 3188 3190 3190 3190 3190 3191 3192 3192 3192 3192 3192 3192 3193 3193 3193 3194 3194 3195 3195 3195 3195 3195 3195 3196
2983 2985 2988 2990 2992 2994 2997 3001 3004 3009 3014 3019 3025 3030 3035 3039 3043 3047 3053 3058 3063 3069 3073 3080 3090 3096 3099 3101 3102 3103 3106 3102 3102 3118 3127 3127 3133 3135 3138 3141 3143 3146 3149 3151 3154 3156 3159 3162 3165 3166 3169 3171 3172 3174 3175 3177 3179 3179 3181 3183 3184 3185 3185 3186 3187 3188 3189 3189 3190 3190 3190 3190 3191 3191 3191 3191 3192 3192 3193 3193 3194 3194 3194 3194 3195 3195 3195 3196
2978 2981 2983 2985 2988 2990 2993 2996 3000 3005 3010 3015 3021 3027 3032 3035 3040 3043 3049 3054 3059 3068 3072 3078 3087 3093 3097 3098 3098 3098 3095 3096 3105 3117 3123 3126 3131 3134 3137 3139 3140 3143 3145 3148 3150 3152 3155 3159 3162 3164 3167 3168 3170 3172 3174 3176 3177 3178 3179 3182 3183 3183 3184 3185 3185 3187 3188 3188 3189 3189 3189 3189 3190 3190 3190 3191 3191 3191 3192 3192 3193 3193 3194 3194 3194 3195 3195 3195
2973 2977 2979 2981 2983 2986 2988 2992 2996 3000 3006 3011 3017 3023 3028 3032 3036 3040 3046 3050 3057 3066 3070 3076 3085 3089 3093 3092 3092 3092 3086 3092 3106 3114 3119 3124 3128 3132 3134 3135 3138 3140 3142 3145 3147 3150 3154 3157 3160 3162 3164 3166 3168 3170 3172 3174 3175 3175 3178 3180 3181 3181 3182 3183 3184 3185 3186 3187 3187 3188 3188 3188 3188 3188 3188 3189 3190 3190 3191 3191 3191 3192 3193 3193 3194 3194 3194 3195
2968 2972 2975 2976 2978 2982 2984 2987 2991 2996 3002 3007 3013 3019 3024 3028 3033 3037 3042 3047 3055 3063 3068 3074 3079 3084 3088 3088 3089 3086 3082 3093 3105 3110 3116 3120 3125 3129 3130 3132 3135 3137 3140 3143 3146 3149 3151 3155 3158 3161 3163 3165 3167 3168 3170 3172 3172 3173 3176 3178 3179 3179 3180 3181 3182 3183 3184 3185 3185 3186 3186 3186 3187 3186 3187 3188 3189 3189 3189 3190 3190 3191 3191 3192 3193 3193 3193 3194
2962 2966 2970 2972 2974 2977 2980 2983 2987 2991 2997 3003 3009 3016 3021 3025 3029 3034 3039 3046 3053 3059 3065 3070 3073 3079 3082 3084 3085 3079 3081 3095 3102 3107 3114 3117 3121 3124 3126 3130 3133 3135 3138 3141 3144 3146 3150 3154 3158 3161 3163 3164 3165 3167 3168 3170 3171 3173 3175 3177 3177 3177 3178 3179 3180 3181 3182 3183 3183 3184 3184 3185 3185 3184 3184 3187 3188 3187 3188 3188 3189 3189 3190 3191 3192 3192 3192 3193
2957 2961 2965 2968 2970 2973 2976 2978 2982 2987 2993 3000 3006 3012 3017 3022 3026 3032 3037 3043 3050 3055 3062 3065 3069 3073 3076 3081 3079 3072 3081 3094 3098 3104 3110 3114 3117 3120 3123 3127 3130 3134 3136 3139 3142 3145 3149 3154 3156 3158 3159 3161 3163 3165 3166 3168 3170 3172 3174 3175 3176 3176 3176 3177 3179 3179 3180 3181 3182 3183 3182 3182 3182 3180 3182 3186 3186 3186 3186 3187 3187 3188 3189 3189 3190 3191 3191 3192
2952 2956 2960 2963 2965 2968 2971 2974 2978 2984 2990 2996 3002 3008 3014 3018 3023 3029 3034 3041 3047 3052 3058 3061 3064 3068 3073 3077 3071 3069 3084 3092 3095 3101 3105 3111 3116 3119 3124 3127 3130 3133 3136 3139 3141 3145 3148 3151 3153 3155 3157 3159 3161 3163 3164 3166 3168 3170 3172 3173 3173 3173 3173 3174 3177 3178 3178 3179 3180 3182 3180 3178 3177 3177 3181 3185 3184 3184 3184 3184 3185 3186 3188 3188 3189 3189 3190 3191
2947 2951 2955 2958 2961 2964 2967 2970 2975 2980 2986 2992 2999 3005 3010 3014 3020 3026 3031 3038 3044 3049 3055 3059 3060 3063 3068 3069 3066 3073 3085 3089 3094 3099 3101 3109 3114 3118 3123 3126 3130 3133 3136 3139 3141 3145 3146 3148 3151 3153 3155 3157 3159 3160 3161 3163 3166 3167 3169 3170 3171 3170 3170 3172 3175 3175 3176 3177 3178 3181 3176 3171 3174 3177 3180 3183 3182 3182 3182 3183 3184 3184 3186 3187 3187 3188 3189 3189
2942 2946 2949 2953 2956 2959 2963 2967 2971 2976 2983 2989 2995 3001 3006 3011 3017 3022 3028 3035 3041 3047 3053 3057 3056 3059 3063 3063 3065 3074 3082 3085 3091 3095 3098 3104 3109 3113 3118 3121 3127 3130 3133 3137 3139 3143 3144 3146 3150 3151 3153 3153 3156 3158 3160 3162 3163 3165 3167 3167 3168 3167 3167 3169 3172 3172 3173 3175 3176 3179 3173 3166 3172 3176 3178 3180 3180 3180 3180 3181 3182 3182 3184 3184 3185 3186 3187 3188
2937 2941 2945 2948 2951 2955 2959 2963 2968 2973 2980 2986 2992 2998 3003 3009 3014 3020 3026 3031 3038 3043 3051 3057 3054 3055 3059 3058 3062 3072 3078 3081 3085 3091 3096 3100 3104 3107 3112 3116 3122 3126 3129 3133 3136 3139 3141 3144 3146 3148 3150 3151 3154 3156 3157 3159 3160 3162 3163 3163 3165 3165 3165 3167 3169 3169 3170 3172 3174 3175 3170 3165 3170 3174 3176 3176 3176 3177 3178 3179 3180 3180 3181 3182 3183 3184 3185 3186
2932 2936 2940 2943 2947 2951 2955 2960 2965 2970 2977 2984 2989 2995 3001 3006 3012 3017 3023 3029 3036 3040 3046 3052 3050 3051 3054 3053 3059 3069 3073 3077 3083 3089 3093 3098 3102 3105 3109 3114 3118 3123 3126 3129 3133 3136 3139 3142 3144 3145 3146 3148 3150 3153 3155 3157 3157 3158 3159 3161 3162 3162 3163 3165 3166 3167 3168 3170 3170 3170 3167 3165 3168 3171 3172 3173 3173 3175 3175 3176 3177 3178 3179 3180 3181 3182 3183 3184
2927 2931 2935 2939 2942 2946 2951 2957 2961 2967 2975 2981 2986 2993 2998 3004 3010 3015 3021 3026 3032 3037 3041 3046 3049 3052 3051 3049 3056 3063 3067 3074 3080 3085 3089 3095 3100 3103 3106 3110 3115 3119 3123 3127 3131 3134 3137 3139 3140 3142 3143 3145 3147 3149 3152 3151 3151 3154 3157 3159 3160 3160 3161 3162 3163 3165 3166 3166 3167 3167 3165 3164 3167 3169 3170 3171 3171 3172 3172 3174 3175 3176 3177 3177 3178 3179 3180 3182
2922 2926 2930 2934 2939 2943 2948 2953 2959 2965 2972 2979 2984 2990 2996 3002 3008 3012 3016 3022 3028 3035 3040 3043 3046 3046 3041 3040 3050 3058 3065 3072 3077 3082 3086 3091 3096 3101 3105 3107 3111 3116 3120 3124 3127 3131 3133 3134 3137 3139 3140 3141 3141 3142 3143 3143 3145 3150 3153 3155 3156 3157 3158 3160 3161 3163 3164 3165 3165 3165 3162 3162 3166 3167 3168 3169 3169 3169 3170 3171 3172 3173 3174 3174 3175 3176 3178 3179
2918 2922 2926 2930 2935 2939 2944 2949 2956 2962 2969 2976 2981 2988 2994 2999 3004 3008 3011 3014 3017 3022 3027 3030 3033 3034 3032 3038 3048 3056 3064 3071 3076 3080 3082 3086 3091 3097 3103 3106 3109 3114 3116 3119 3122 3125 3127 3129 3132 3132 3130 3131 3133 3136 3140 3143 3147 3150 3152 3153 3154 3156 3156 3158 3161 3162 3163 3163 3163 3162 3160 3160 3163 3165 3166 3166 3166 3167 3168 3169 3169 3169 3170 3171 3172 3173 3175 3175
2913 2917 2922 2926 2931 2935 2941 2946 2952 2959 2966 2971 2975 2980 2984 2988 2994 2998 3003 3007 3009 3013 3018 3022 3028 3033 3034 3038 3045 3053 3061 3069 3073 3076 3078 3083 3087 3091 3097 3103 3107 3111 3112 3114 3117 3119 3123 3125 3122 3120 3122 3127 3132 3138 3143 3146 3148 3151 3153 3153 3155 3155 3156 3158 3160 3161 3162 3161 3160 3160 3159 3159 3160 3162 3163 3164 3163 3163 3165 3166 3166 3167 3167 3168 3169 3170 3171 3173
2909 2913 2917 2922 2927 2932 2937 2943 2949 2956 2961 2965 2969 2970 2972 2977 2981 2986 2994 3003 3009 3015 3018 3019 3026 3033 3033 3034 3040 3048 3056 3062 3068 3074 3076 3080 3084 3086 3090 3096 3100 3103 3107 3111 3114 3118 3121 3118 3113 3116 3123 3130 3135 3140 3144 3145 3147 3150 3151 3152 3154 3155 3156 3158 3159 3159 3160 3159 3158 3159 3157 3156 3157 3159 3160 3161 3160 3160 3161 3163 3163 3164 3165 3165 3166 3167 3168 3170
2905 2908 2913 2918 2923 2928 2934 2940 2946 2952 2957 2962 2964 2966 2970 2975 2980 2986 2992 2997 3003 3011 3017 3018 3023 3029 3032 3034 3040 3049 3052 3055 3062 3069 3070 3074 3080 3083 3085 3089 3094 3097 3102 3108 3110 3114 3114 3107 3108 3117 3126 3132 3136 3139 3142 3143 3145 3148 3149 3150 3151 3152 3155 3156 3157 3157 3158 3157 3156 3157 3155 3153 3154 3155 3156 3157 3157 3157 3158 3159 3161 3162 3162 3162 3163 3164 3165 3166
2900 2904 2910 2914 2919 2925 2931 2936 2942 2947 2951 2955 2959 2964 2970 2977 2982 2989 2994 2996 2999 3005 3010 3013 3018 3024 3027 3030 3039 3047 3050 3052 3058 3063 3067 3070 3075 3079 3082 3084 3089 3094 3098 3100 3101 3104 3101 3099 3108 3119 3125 3130 3134 3137 3140 3141 3143 3145 3146 3148 3148 3150 3152 3153 3154 3155 3156 3156 3155 3155 3152 3149 3151 3152 3152 3154 3154 3154 3156 3156 3157 3158 3158 3159 3160 3160 3161 3162
2896 2900 2905 2910 2916 2922 2927 2934 2939 2941 2945 2951 2957 2963 2971 2977 2982 2988 2994 2997 3000 3001 3003 3008 3015 3020 3021 3024 3032 3039 3044 3049 3054 3059 3063 3066 3070 3075 3079 3081 3086 3090 3093 3095 3098 3099 3098 3101 3111 3119 3123 3127 3130 3134 3137 3137 3140 3142 3144 3146 3147 3149 3150 3151 3153 3154 3155 3155 3154 3154 3151 3145 3147 3149 3148 3151 3152 3151 3152 3153 3153 3154 3155 3155 3156 3156 3157 3158
2892 2897 2901 2906 2912 2918 2926 2931 2932 2936 2943 2950 2956 2963 2970 2976 2981 2988 2993 2997 2999 3001 3003 3005 3010 3015 3018 3022 3027 3033 3041 3044 3048 3054 3058 3062 3066 3070 3076 3081 3083 3085 3089 3094 3099 3101 3102 3105 3111 3117 3121 3125 3128 3131 3133 3135 3137 3140 3142 3145 3148 3149 3149 3151 3152 3153 3154 3153 3152 3154 3152 3143 3142 3145 3145 3147 3148 3147 3148 3149 3149 3150 3151 3152 3152 3152 3153 3154
2888 2893 2898 2903 2909 2916 2921 2923 2926 2934 2940 2946 2953 2961 2968 2974 2981 2987 2993 2998 2997 2995 2997 3001 3007 3010 3013 3016 3023 3033 3039 3038 3044 3052 3056 3061 3066 3067 3072 3077 3080 3083 3088 3095 3100 3102 3102 3105 3110 3114 3117 3122 3126 3128 3131 3134 3136 3138 3139 3144 3147 3148 3148 3149 3150 3151 3152 3151 3151 3153 3152 3144 3138 3140 3142 3144 3144 3143 3144 3144 3145 3147 3148 3148 3149 3150 3151 3151
2884 2889 2895 2900 2905 2910 2913 2916 2923 2930 2935 2942 2951 2960 2965 2972 2981 2987 2993 2997 2991 2987 2992 2997 3002 3005 3008 3012 3018 3027 3029 3030 3042 3050 3052 3058 3066 3069 3072 3073 3076 3082 3087 3094 3098 3096 3097 3102 3108 3112 3115 3119 3120 3123 3128 3132 3134 3135 3138 3142 3145 3145 3147 3148 3149 3151 3150 3150 3150 3150 3151 3146 3136 3133 3138 3141 3141 3140 3140 3141 3142 3144 3145 3146 3147 3147 3147 3148
2881 2886 2892 2897 2903 2907 2909 2913 2919 2925 2931 2940 2949 2956 2963 2971 2980 2985 2989 2989 2981 2981 2988 2992 2997 3005 3009 3011 3015 3020 3022 3025 3033 3042 3050 3058 3062 3067 3070 3070 3072 3078 3084 3088 3090 3091 3093 3097 3101 3106 3110 3113 3115 3120 3126 3130 3132 3134 3137 3141 3143 3145 3146 3147 3148 3149 3149 3149 3149 3147 3150 3148 3134 3128 3135 3137 3137 3136 3136 3138 3140 3141 3143 3143 3144 3144 3144 3145
2878 2883 2889 2895 2901 2906 2911 2915 2919 2924 2932 2940 2947 2954 2961 2969 2976 2981 2983 2980 2973 2976 2984 2989 2995 3002 3005 3008 3012 3018 3022 3024 3026 3033 3046 3055 3059 3063 3066 3068 3072 3077 3083 3086 3087 3090 3093 3096 3102 3106 3108 3110 3115 3121 3125 3129 3131 3133 3137 3140 3142 3144 3145 3147 3148 3148 3149 3147 3145 3146 3149 3149 3133 3123 3130 3134 3131 3131 3133 3136 3138 3139 3140 3140 3141 3141 3141 3141
2875 2880 2886 2893 2897 2902 2908 2915 2920 2925 2932 2940 2947 2954 2961 2966 2970 2972 2973 2969 2966 2971 2979 2984 2988 2993 3000 3004 3007 3013 3018 3023 3028 3034 3041 3047 3053 3060 3065 3070 3075 3077 3081 3086 3089 3091 3093 3100 3105 3108 3109 3111 3116 3122 3126 3129 3131 3133 3136 3138 3141 3143 3144 3146 3146 3147 3148 3143 3142 3144 3146 3150 3138 3120 3122 3128 3126 3128 3130 3133 3135 3136 3137 3137 3137 3138 3138 3138
2872 2878 2884 2889 2893 2897 2903 2910 2917 2924 2932 2939 2946 2952 2958 2963 2964 2962 2961 2962 2966 2969 2973 2978 2981 2987 2994 2996 3001 3008 3014 3019 3024 3030 3035 3041 3047 3051 3057 3066 3071 3076 3081 3084 3086 3089 3093 3098 3102 3105 3109 3112 3117 3122 3125 3127 3129 3132 3135 3136 3139 3142 3143 3145 3145 3146 3145 3139 3140 3143 3144 3151 3140 3119 3118 3124 3123 3125 3128 3130 3132 3132 3133 3134 3134 3135 3135 3135
2871 2877 2882 2887 2892 2897 2902 2908 2913 2921 2929 2936 2943 2948 2953 2956 2956 2954 2955 2960 2964 2965 2966 2972 2976 2982 2989 2993 2997 3001 3008 3014 3018 3023 3029 3034 3040 3042 3046 3050 3053 3062 3072 3077 3081 3086 3091 3094 3097 3101 3106 3110 3115 3119 3122 3124 3126 3129 3131 3132 3136 3140 3142 3142 3141 3141 3139 3138 3139 3141 3143 3143 3128 3114 3117 3122 3121 3125 3126 3127 3128 3128 3129 3130 3131 3131 3132 3132
2871 2876 2881 2887 2892 2897 2903 2909 2914 2920 2926 2932 2938 2944 2948 2948 2945 2948 2952 2954 2957 2959 2964 2969 2974 2979 2985 2990 2993 2996 3003 3009 3012 3019 3026 3030 3035 3039 3042 3044 3044 3046 3054 3065 3074 3079 3088 3093 3094 3098 3101 3105 3109 3111 3112 3114 3118 3121 3122 3123 3127 3133 3136 3136 3137 3137 3136 3137 3137 3140 3142 3134 3119 3114 3116 3117 3119 3123 3123 3123 3123 3124 3126 3127 3127 3128 3129 3130
2870 2875 2880 2886 2892 2896 2902 2908 2913 2918 2924 2928 2933 2937 2941 2941 2941 2946 2948 2950 2954 2958 2961 2966 2971 2978 2981 2983 2987 2992 2999 3004 3007 3013 3020 3026 3031 3036 3041 3044 3047 3049 3052 3061 3068 3071 3078 3082 3084 3089 3093 3097 3102 3104 3105 3107 3112 3116 3118 3121 3122 3124 3127 3129 3132 3132 3132 3134 3136 3139 3136 3124 3115 3115 3114 3113 3116 3119 3119 3120 3120 3120 3122 3123 3124 3126 3127 3128
2867 2872 2878 2883 2889 2896 2901 2906 2912 2917 2921 2925 2929 2931 2932 2934 2937 2941 2944 2948 2953 2955 2959 2964 2968 2973 2978 2981 2983 2986 2991 2998 3004 3010 3013 3016 3020 3027 3033 3037 3042 3048 3051 3058 3066 3070 3074 3075 3077 3084 3089 3092 3097 3101 3105 3109 3112 3115 3118 3121 3120 3120 3122 3125 3128 3128 3130 3133 3132 3131 3124 3113 3111 3113 3113 3115 3116 3116 3118 3118 3117 3117 3118 3120 3122 3124 3125 3126
2865 2871 2877 2882 2888 2895 2900 2904 2910 2914 2918 2922 2925 2926 2928 2931 2933 2937 2942 2946 2949 2952 2956 2962 2963 2965 2971 2976 2979 2984 2989 2992 2996 3004 3009 3013 3014 3017 3024 3028 3032 3038 3040 3046 3055 3063 3070 3074 3078 3084 3089 3093 3097 3100 3104 3107 3109 3111 3114 3114 3115 3119 3121 3123 3126 3127 3131 3131 3125 3121 3115 3111 3112 3110 3110 3115 3114 3115 3117 3116 3116 3117 3117 3119 3121 3123 3124 3125
2863 2869 2876 2882 2888 2893 2897 2902 2907 2911 2916 2920 2922 2924 2926 2929 2931 2936 2942 2945 2948 2951 2953 2955 2957 2958 2963 2968 2973 2978 2985 2990 2992 2996 3002 3009 3011 3012 3018 3025 3030 3033 3035 3039 3045 3053 3062 3069 3075 3081 3086 3092 3097 3101 3104 3107 3107 3108 3108 3109 3114 3120 3121 3122 3125 3127 3129 3127 3120 3115 3112 3112 3114 3109 3106 3110 3111 3113 3115 3114 3115 3116 3117 3119 3120 3122 3123 3123
2862 2868 2875 2881 2886 2891 2896 2901 2906 2910 2915 2918 2921 2924 2925 2928 2932 2935 2940 2944 2946 2949 2950 2950 2952 2955 2958 2962 2967 2973 2979 2984 2990 2993 2997 3003 3006 3008 3014 3022 3029 3034 3037 3040 3044 3049 3057 3067 3075 3079 3084 3090 3095 3100 3102 3105 3106 3105 3106 3108 3112 3115 3115 3117 3120 3121 3123 3123 3116 3112 3111 3108 3106 3103 3104 3107 3108 3110 3111 3112 3114 3115 3116 3117 3118 3120 3121 3121
2862 2868 2874 2880 2885 2891 2896 2901 2905 2909 2913 2916 2919 2922 2924 2927 2931 2935 2938 2942 2945 2947 2948 2948 2949 2952 2955 2958 2962 2969 2974 2978 2984 2991 2994 2998 3002 3007 3011 3016 3023 3030 3035 3039 3043 3047 3053 3063 3072 3077 3083 3089 3093 3095 3095 3096 3099 3103 3106 3108 3108 3109 3109 3111 3112 3111 3114 3117 3114 3112 3109 3100 3096 3099 3103 3105 3107 3109 3109 3110 3112 3113 3114 3115 3116 3117 3118 3119
2861 2866 2873 2880 2885 2891 2896 2900 2905 2908 2911 2914 2916 2919 2923 2926 2929 2934 2937 2940 2942 2945 2946 2947 2947 2948 2953 2957 2960 2965 2970 2975 2980 2985 2989 2994 2999 3006 3011 3014 3019 3025 3031 3036 3040 3045 3050 3057 3066 3074 3081 3085 3086 3086 3086 3087 3089 3093 3096 3099 3101 3104 3106 3108 3109 3108 3110 3111 3110 3111 3104 3092 3092 3099 3101 3102 3106 3107 3108 3108 3109 3110 3112 3114 3115 3115 3116 3118
2860 2865 2872 2880 2885 2890 2895 2899 2903 2906 2909 2913 2916 2919 2923 2926 2928 2932 2936 2938 2940 2943 2945 2946 2947 2947 2950 2955 2958 2962 2967 2972 2977 2981 2986 2990 2993 2998 3003 3010 3015 3019 3025 3032 3036 3041 3046 3053 3060 3068 3073 3077 3079 3081 3083 3086 3087 3087 3088 3091 3094 3098 3101 3105 3106 3105 3106 3106 3105 3106 3097 3086 3091 3099 3099 3100 3103 3103 3104 3104 3105 3107 3109 3111 3113 3114 3114 3115
2861 2867 2874 2881 2886 2890 2894 2898 2902 2907 2910 2913 2915 2918 2922 2925 2927 2931 2934 2937 2938 2941 2943 2944 2945 2947 2949 2951 2955 2960 2964 2968 2973 2978 2981 2984 2987 2989 2994 3003 3011 3014 3016 3021 3028 3034 3041 3048 3056 3063 3068 3072 3077 3079 3082 3085 3087 3089 3090 3091 3094 3096 3096 3098 3097 3096 3100 3101 3100 3102 3094 3083 3087 3095 3097 3098 3099 3099 3101 3102 3103 3106 3107 3108 3110 3111 3112 3113
2864 2870 2875 2882 2886 2890 2894 2898 2902 2907 2910 2913 2915 2918 2921 2924 2926 2929 2933 2936 2936 2937 2940 2942 2944 2947 2948 2950 2953 2958 2963 2966 2969 2974 2978 2982 2985 2988 2993 2999 3007 3012 3013 3016 3023 3030 3037 3044 3051 3060 3067 3071 3075 3078 3081 3084 3085 3087 3088 3089 3091 3090 3090 3092 3092 3092 3095 3095 3095 3100 3093 3081 3083 3092 3095 3096 3097 3098 3100 3100 3102 3104 3105 3107 3108 3109 3110 3111
2867 2872 2877 2882 2886 2890 2894 2896 2900 2905 2909 2912 2915 2918 2921 2924 2926 2929 2931 2933 2935 2936 2938 2940 2942 2944 2947 2950 2952 2955 2958 2962 2967 2972 2976 2980 2984 2989 2994 2998 3002 3006 3008 3010 3012 3018 3028 3035 3043 3055 3065 3070 3074 3076 3077 3079 3080 3080 3081 3082 3084 3086 3089 3092 3092 3092 3091 3087 3090 3095 3087 3077 3081 3089 3092 3094 3096 3097 3098 3099 3101 3103 3103 3105 3105 3106 3108 3109
2868 2873 2878 2883 2887 2891 2894 2897 2899 2903 2907 2911 2915 2918 2922 2924 2926 2928 2930 2932 2934 2935 2936 2939 2941 2943 2946 2950 2952 2954 2954 2957 2963 2969 2973 2978 2983 2987 2992 2996 3000 3003 3006 3009 3011 3013 3021 3026 3031 3039 3048 3053 3055 3056 3057 3062 3066 3069 3072 3075 3078 3081 3084 3085 3087 3089 3085 3081 3084 3084 3077 3075 3081 3086 3090 3093 3095 3096 3098 3099 3100 3101 3101 3102 3103 3104 3106 3107
2868 2872 2877 2883 2888 2891 2894 2898 2900 2903 2905 2909 2913 2917 2921 2923 2925 2927 2930 2931 2932 2933 2935 2937 2939 2941 2944 2948 2951 2953 2955 2956 2959 2964 2969 2973 2978 2984 2989 2994 2999 3003 3006 3010 3013 3016 3022 3025 3027 3029 3032 3034 3037 3040 3046 3053 3058 3062 3066 3069 3072 3076 3079 3082 3084 3082 3076 3075 3077 3074 3073 3077 3080 3083 3088 3091 3094 3096 3097 3097 3097 3098 3099 3099 3100 3101 3102 3104
2869 2871 2874 2879 2886 2891 2894 2897 2901 2904 2907 2909 2912 2915 2919 2921 2924 2927 2929 2930 2930 2932 2934 2936 2938 2940 2941 2945 2949 2952 2954 2956 2958 2962 2966 2970 2974 2981 2988 2992 2998 3002 3005 3009 3012 3015 3019 3022 3025 3030 3033 3037 3040 3043 3048 3054 3057 3059 3061 3065 3068 3073 3078 3079 3077 3071 3072 3076 3074 3070 3073 3075 3075 3081 3085 3087 3091 3094 3094 3095 3095 3095 3096 3096 3097 3098 3100 3101
2870 2872 2874 2877 2882 2887 2891 2895 2899 2903 2907 2910 2912 2914 2917 2920 2923 2925 2927 2929 2929 2930 2933 2935 2936 2938 2939 2943 2947 2950 2953 2956 2959 2961 2964 2967 2973 2979 2985 2992 2996 2999 3003 3007 3010 3012 3015 3018 3022 3028 3034 3039 3042 3045 3048 3052 3055 3056 3058 3060 3064 3068 3070 3071 3068 3066 3071 3073 3066 3065 3072 3071 3071 3078 3082 3083 3089 3091 3091 3093 3093 3092 3093 3093 3094 3096 3098 3099
2870 2873 2877 2880 2882 2885 2890 2894 2899 2903 2906 2909 2912 2913 2916 2919 2922 2925 2927 2928 2928 2929 2931 2933 2934 2937 2939 2941 2945 2948 2950 2953 2958 2960 2962 2966 2971 2975 2981 2987 2991 2995 2999 3003 3006 3010 3014 3017 3020 3027 3033 3037 3040 3043 3047 3050 3053 3055 3056 3057 3059 3062 3063 3063 3062 3063 3069 3070 3064 3065 3070 3067 3067 3073 3076 3080 3086 3088 3089 3090 3090 3090 3092 3092 3093 3095 3095 3097
2872 2875 2877 2880 2884 2888 2892 2896 2899 2903 2906 2909 2912 2914 2917 2919 2922 2925 2926 2927 2928 2929 2930 2932 2933 2935 2938 2940 2943 2945 2948 2951 2956 2959 2962 2965 2969 2973 2977 2979 2983 2989 2995 2998 3002 3007 3012 3016 3020 3026 3031 3034 3037 3041 3044 3047 3049 3051 3053 3054 3057 3060 3061 3061 3061 3063 3067 3067 3062 3062 3063 3059 3061 3068 3072 3076 3081 3083 3084 3086 3086 3089 3090 3091 3092 3091 3092 3094
2875 2878 2879 2881 2884 2889 2894 2898 2901 2904 2907 2910 2913 2915 2918 2920 2922 2924 2925 2926 2927 2929 2931 2932 2933 2934 2937 2940 2942 2944 2947 2950 2954 2958 2963 2965 2967 2970 2973 2975 2978 2983 2988 2994 2998 3002 3007 3013 3018 3024 3028 3031 3034 3038 3040 3044 3048 3049 3049 3050 3052 3054 3055 3054 3054 3054 3057 3059 3058 3058 3056 3053 3056 3064 3068 3071 3074 3076 3078 3081 3084 3086 3088 3089 3089 3088 3089 3090
2877 2880 2882 2884 2887 2891 2895 2898 2902 2906 2909 2912 2914 2917 2919 2921 2923 2924 2924 2925 2927 2929 2931 2933 2934 2935 2937 2939 2941 2943 2946 2949 2952 2956 2961 2965 2968 2969 2969 2972 2976 2978 2982 2988 2993 2997 3002 3007 3013 3019 3024 3027 3031 3033 3037 3043 3046 3042 3039 3041 3043 3044 3044 3045 3046 3047 3051 3054 3055 3052 3048 3049 3055 3062 3065 3066 3068 3070 3073 3076 3079 3081 3083 3085 3085 3085 3085 3085